Location: Agadir Irigdalene
(31.2522°N, 8.7797°W)
Time: 16:32:06
(UTC+00:00)

MOS 1-B - Pass Details

Date: 01 December 2020
Orbit: 905 x 914 km, 99.4° (Epoch: 26 January)

Event Time Altitude Azimuth Distance (km) Brightness Sun altitude
Rises 17:44:35 0° 164° (SSE) 3,523 7.5 -3.3°
Reaches altitude 10° 17:46:59 10° 164° (SSE) 2,586 6.9 -3.7°
Maximum altitude 17:52:45 89° 80° (E) 916 4.4 -4.9°
Drops below altitude 10° 17:58:35 10° 347° (NNW) 2,605 6.7 -6.0°
Sets 18:01:00 0° 347° (NNW) 3,550 7.3 -6.5°
